Overview Statistics Trail Chart Weather Telemetry Raw packets
 

This is the latest recevied weather packets stored in our database for station/object G4KVI. If no packets are shown the sender has not sent any weather packets the latest 10 day(s).

<< 11 12 13 14 15 16 17 >>
Time Temp. Humidity Pressure Rain* Wind** Luminosity Snow
1788516004 17.78° C 80% 1016.9 hPa 0 mm - 198 W/m² -
1788515704 17.78° C 80% 1016.8 hPa 0 mm - 106 W/m² -
1788515404 17.78° C 80% 1016.6 hPa 0 mm - 96 W/m² -
1788515104 17.22° C 80% 1016.6 hPa 0 mm - 172 W/m² -
1788514804 17.22° C 81% 1016.6 hPa 0 mm - 117 W/m² -
1788514504 17.78° C 82% 1016.6 hPa 0 mm - 70 W/m² -
1788514204 17.78° C 82% 1016.5 hPa 0 mm - 110 W/m² -
1788513904 17.78° C 81% 1016.4 hPa 0 mm - 135 W/m² -
1788513604 17.78° C 82% 1016.3 hPa 0 mm - 196 W/m² -
1788513304 17.78° C 83% 1016.1 hPa 0 mm - 209 W/m² -
1788513004 17.78° C 83% 1015.9 hPa 0 mm - 209 W/m² -
1788512704 17.78° C 84% 1016 hPa 0 mm - 189 W/m² -
1788512404 17.78° C 83% 1015.7 hPa 0 mm - 198 W/m² -
1788512104 17.22° C 83% 1015.8 hPa 0 mm - 275 W/m² -
1788511804 17.78° C 83% 1015.5 hPa 0 mm - 211 W/m² -
1788511504 17.22° C 84% 1015.7 hPa 0 mm - 443 W/m² -
1788511204 16.67° C 85% 1015.6 hPa 0 mm - 300 W/m² -
1788510904 16.67° C 86% 1015.7 hPa 0 mm - 209 W/m² -
1788510604 16.67° C 88% 1015.6 hPa 0 mm - 165 W/m² -
1788510304 16.67° C 88% 1015.6 hPa 0 mm - 138 W/m² -
1788510004 16.67° C 89% 1015.7 hPa 0 mm - 134 W/m² -
1788509704 16.67° C 89% 1015.8 hPa 0 mm - 66 W/m² -
1788509404 16.67° C 90% 1015.5 hPa 0 mm - 54 W/m² -
1788509104 16.67° C 90% 1015.3 hPa 0 mm - 76 W/m² -
1788508804 16.67° C 90% 1015.4 hPa 0 mm - 78 W/m² -

* Rain latest hour (hover to see other rain measurements)
** Current wind speed in m/s (hover to see current wind gust speed)